Time,TemperatureF,DewpointF,PressureIn,WindDirection,WindDirectionDegrees,WindSpeedMPH,WindSpeedGustMPH,Humidity,HourlyPrecipIn,Conditions,Clouds,dailyrainin,SoftwareType,DateUTC
2013-03-08 00:02:00,26.1,23.7,30.43,East,81,0.0,0.0,91,0.00,,,0.10,meteohub,2013-03-08 06:02:00,
2013-03-08 00:07:00,26.1,24.1,30.43,East,81,0.0,0.0,92,0.00,,,0.00,meteohub,2013-03-08 06:07:00,
2013-03-08 00:12:00,26.2,24.3,30.43,East,81,0.0,0.0,92,0.00,,,0.00,meteohub,2013-03-08 06:12:00,
2013-03-08 00:17:00,26.2,24.3,30.43,East,81,0.0,0.0,92,0.00,,,0.00,meteohub,2013-03-08 06:17:00,
2013-03-08 00:23:00,26.4,24.4,30.43,East,81,0.0,0.0,92,0.00,,,0.00,meteohub,2013-03-08 06:23:00,
2013-03-08 00:28:00,26.2,24.3,30.43,East,81,0.0,0.0,92,0.00,,,0.00,meteohub,2013-03-08 06:28:00,
2013-03-08 00:33:00,26.2,24.3,30.43,East,81,0.0,0.0,92,0.00,,,0.00,meteohub,2013-03-08 06:33:00,
2013-03-08 00:38:00,26.2,24.3,30.43,East,81,0.0,0.0,92,0.00,,,0.00,meteohub,2013-03-08 06:38:00,
2013-03-08 00:43:00,26.2,24.3,30.44,East,81,0.0,0.0,92,0.00,,,0.00,meteohub,2013-03-08 06:43:00,
2013-03-08 00:48:00,26.4,24.4,30.44,East,81,0.0,0.0,92,0.00,,,0.00,meteohub,2013-03-08 06:48:00,
2013-03-08 00:53:00,26.4,24.4,30.44,East,81,0.0,0.0,92,0.00,,,0.00,meteohub,2013-03-08 06:53:00,
2013-03-08 00:58:00,26.6,24.6,30.45,East,81,0.0,0.0,92,0.00,,,0.00,meteohub,2013-03-08 06:58:00,
2013-03-08 01:03:00,26.6,24.6,30.45,East,81,0.0,0.0,92,0.00,,,0.00,meteohub,2013-03-08 07:03:00,
2013-03-08 01:08:00,26.6,24.6,30.44,East,81,0.0,0.0,92,0.00,,,0.00,meteohub,2013-03-08 07:08:00,
2013-03-08 01:13:00,26.6,24.6,30.45,East,81,0.0,0.0,92,0.00,,,0.00,meteohub,2013-03-08 07:13:00,
2013-03-08 01:18:00,26.6,24.6,30.45,East,81,0.0,0.0,92,0.00,,,0.00,meteohub,2013-03-08 07:18:00,
2013-03-08 01:23:00,26.8,24.8,30.45,East,81,0.0,0.0,92,0.00,,,0.00,meteohub,2013-03-08 07:23:00,
2013-03-08 01:29:00,26.8,24.8,30.45,East,81,0.0,0.0,92,0.00,,,0.00,meteohub,2013-03-08 07:29:00,
2013-03-08 01:34:00,26.4,24.1,30.45,East,81,0.0,0.0,91,0.00,,,0.00,meteohub,2013-03-08 07:34:00,
2013-03-08 01:39:00,26.2,23.9,30.45,East,81,0.0,0.0,91,0.00,,,0.00,meteohub,2013-03-08 07:39:00,
2013-03-08 01:44:00,26.1,23.7,30.45,East,81,0.0,0.0,91,0.00,,,0.00,meteohub,2013-03-08 07:44:00,
2013-03-08 01:49:00,26.1,23.7,30.45,East,81,0.0,0.0,91,0.00,,,0.00,meteohub,2013-03-08 07:49:00,
2013-03-08 01:54:00,26.1,24.1,30.45,East,81,0.0,0.0,92,0.00,,,0.00,meteohub,2013-03-08 07:54:00,
2013-03-08 01:59:00,26.1,24.1,30.45,East,81,0.0,0.0,92,0.00,,,0.00,meteohub,2013-03-08 07:59:00,
2013-03-08 02:04:00,26.1,24.1,30.45,East,81,0.0,0.0,92,0.00,,,0.00,meteohub,2013-03-08 08:04:00,
2013-03-08 02:09:00,26.1,24.1,30.45,East,81,0.0,0.0,92,0.00,,,0.00,meteohub,2013-03-08 08:09:00,
2013-03-08 02:14:00,26.1,24.1,30.45,East,81,0.0,0.0,92,0.00,,,0.00,meteohub,2013-03-08 08:14:00,
2013-03-08 02:19:00,26.1,23.7,30.45,East,81,0.0,0.0,91,0.00,,,0.00,meteohub,2013-03-08 08:19:00,
2013-03-08 02:24:00,25.9,23.5,30.45,East,81,0.0,0.0,91,0.00,,,0.00,meteohub,2013-03-08 08:24:00,
2013-03-08 02:30:00,25.9,23.5,30.45,East,81,0.0,0.0,91,0.00,,,0.00,meteohub,2013-03-08 08:30:00,
2013-03-08 02:35:00,25.5,23.2,30.45,East,81,0.0,0.0,91,0.00,,,0.00,meteohub,2013-03-08 08:35:00,
2013-03-08 02:40:00,25.3,23.0,30.45,East,81,0.0,0.0,91,0.00,,,0.00,meteohub,2013-03-08 08:40:00,
2013-03-08 02:45:00,25.2,22.8,30.45,East,81,0.0,0.0,91,0.00,,,0.00,meteohub,2013-03-08 08:45:00,
2013-03-08 02:50:00,25.2,22.8,30.45,East,81,0.0,0.0,91,0.00,,,0.00,meteohub,2013-03-08 08:50:00,
2013-03-08 02:55:00,25.2,23.2,30.45,East,81,0.0,0.0,92,0.00,,,0.00,meteohub,2013-03-08 08:55:00,
2013-03-08 03:00:00,25.0,23.0,30.45,East,81,0.0,0.0,92,0.00,,,0.00,meteohub,2013-03-08 09:00:00,
2013-03-08 03:05:00,24.8,22.8,30.45,East,81,0.0,0.0,92,0.00,,,0.00,meteohub,2013-03-08 09:05:00,
2013-03-08 03:10:00,24.6,22.6,30.45,East,81,0.0,0.0,92,0.00,,,0.00,meteohub,2013-03-08 09:10:00,
2013-03-08 03:15:00,24.4,22.3,30.45,East,81,0.0,0.0,91,0.00,,,0.00,meteohub,2013-03-08 09:15:00,
2013-03-08 03:20:00,24.4,22.5,30.44,East,81,0.0,0.0,92,0.00,,,0.00,meteohub,2013-03-08 09:20:00,
2013-03-08 03:25:00,24.4,22.5,30.44,East,81,0.0,2.0,92,0.00,,,0.00,meteohub,2013-03-08 09:25:00,
2013-03-08 03:30:00,24.6,22.6,30.44,East,81,0.0,2.0,92,0.00,,,0.00,meteohub,2013-03-08 09:30:00,
2013-03-08 03:36:00,25.0,23.2,30.44,ENE,66,1.0,3.0,93,0.00,,,0.00,meteohub,2013-03-08 09:36:00,
2013-03-08 03:41:00,25.3,23.5,30.44,ENE,70,0.0,3.0,93,0.00,,,0.00,meteohub,2013-03-08 09:41:00,
2013-03-08 03:46:00,25.9,23.9,30.44,ENE,71,0.0,3.0,92,0.00,,,0.00,meteohub,2013-03-08 09:46:00,
2013-03-08 03:51:00,25.9,23.5,30.44,ENE,71,0.0,3.0,91,0.00,,,0.00,meteohub,2013-03-08 09:51:00,
2013-03-08 03:56:00,25.7,23.4,30.44,ENE,71,0.0,3.0,91,0.00,,,0.00,meteohub,2013-03-08 09:56:00,
2013-03-08 04:01:00,25.7,23.4,30.45,ENE,71,1.0,2.0,91,0.00,,,0.00,meteohub,2013-03-08 10:01:00,
2013-03-08 04:06:00,25.9,23.5,30.45,ENE,71,0.0,3.0,91,0.00,,,0.00,meteohub,2013-03-08 10:06:00,
2013-03-08 04:11:00,26.1,23.7,30.45,ENE,71,2.0,3.0,91,0.00,,,0.00,meteohub,2013-03-08 10:11:00,
2013-03-08 04:16:00,26.2,23.7,30.46,ENE,71,0.0,4.0,90,0.00,,,0.00,meteohub,2013-03-08 10:16:00,
2013-03-08 04:21:00,26.2,23.7,30.45,NE,53,2.0,4.0,90,0.00,,,0.00,meteohub,2013-03-08 10:21:00,
2013-03-08 04:26:00,26.2,23.7,30.46,NE,53,0.0,4.0,90,0.00,,,0.00,meteohub,2013-03-08 10:26:00,
2013-03-08 04:31:00,26.2,23.7,30.46,NE,53,0.0,4.0,90,0.00,,,0.00,meteohub,2013-03-08 10:31:00,
2013-03-08 04:36:00,26.1,23.5,30.46,NE,53,0.0,2.0,90,0.00,,,0.00,meteohub,2013-03-08 10:36:00,
2013-03-08 04:41:00,26.1,23.5,30.46,NE,53,0.0,1.0,90,0.00,,,0.00,meteohub,2013-03-08 10:41:00,
2013-03-08 04:46:00,26.1,23.5,30.46,NE,53,0.0,0.0,90,0.00,,,0.00,meteohub,2013-03-08 10:46:00,
2013-03-08 04:51:00,25.9,23.4,30.46,NE,53,0.0,0.0,90,0.00,,,0.00,meteohub,2013-03-08 10:51:00,
2013-03-08 04:57:00,25.7,23.2,30.47,NE,53,0.0,0.0,90,0.00,,,0.00,meteohub,2013-03-08 10:57:00,
2013-03-08 05:02:00,25.3,22.8,30.47,NE,53,0.0,0.0,90,0.00,,,0.00,meteohub,2013-03-08 11:02:00,
2013-03-08 05:07:00,25.3,22.8,30.47,NE,53,0.0,0.0,90,0.00,,,0.00,meteohub,2013-03-08 11:07:00,
2013-03-08 05:12:00,25.3,23.0,30.47,NE,53,0.0,0.0,91,0.00,,,0.00,meteohub,2013-03-08 11:12:00,
2013-03-08 05:17:00,25.2,22.6,30.46,ENE,58,0.0,0.0,90,0.00,,,0.00,meteohub,2013-03-08 11:17:00,
2013-03-08 05:22:00,24.8,22.3,30.46,East,92,2.0,2.0,90,0.00,,,0.00,meteohub,2013-03-08 11:22:00,
2013-03-08 05:27:00,25.0,22.6,30.46,ENE,71,2.0,5.0,91,0.00,,,0.00,meteohub,2013-03-08 11:27:00,
2013-03-08 05:32:00,25.0,22.6,30.46,ENE,61,3.0,5.0,91,0.00,,,0.00,meteohub,2013-03-08 11:32:00,
2013-03-08 05:37:00,25.2,22.6,30.46,ENE,69,2.0,6.0,90,0.00,,,0.00,meteohub,2013-03-08 11:37:00,
2013-03-08 05:42:00,25.3,22.8,30.46,NE,48,2.0,6.0,90,0.00,,,0.00,meteohub,2013-03-08 11:42:00,
2013-03-08 05:47:00,25.5,23.0,30.46,ENE,64,4.0,6.0,90,0.00,,,0.00,meteohub,2013-03-08 11:47:00,
2013-03-08 05:52:00,25.5,22.8,30.46,NE,54,2.0,5.0,89,0.00,,,0.00,meteohub,2013-03-08 11:52:00,
2013-03-08 05:57:00,25.5,22.8,30.47,NE,53,1.0,5.0,89,0.00,,,0.00,meteohub,2013-03-08 11:57:00,
2013-03-08 06:02:00,25.5,22.8,30.47,ENE,65,0.0,5.0,89,0.00,,,0.00,meteohub,2013-03-08 12:02:00,
2013-03-08 06:07:00,25.5,22.8,30.47,ENE,68,0.0,5.0,89,0.00,,,0.00,meteohub,2013-03-08 12:07:00,
2013-03-08 06:12:00,25.3,22.6,30.47,ENE,68,0.0,4.0,89,0.00,,,0.00,meteohub,2013-03-08 12:12:00,
2013-03-08 06:17:00,25.3,22.6,30.47,ENE,68,0.0,3.0,89,0.00,,,0.00,meteohub,2013-03-08 12:17:00,
2013-03-08 06:22:00,25.3,22.6,30.48,ENE,68,1.0,2.0,89,0.00,,,0.00,meteohub,2013-03-08 12:22:00,
2013-03-08 06:27:00,25.2,22.5,30.48,ENE,68,0.0,2.0,89,0.00,,,0.00,meteohub,2013-03-08 12:27:00,
2013-03-08 06:32:00,25.2,22.5,30.48,ENE,68,1.0,2.0,89,0.00,,,0.00,meteohub,2013-03-08 12:32:00,
2013-03-08 06:37:00,25.3,22.8,30.48,ENE,68,1.0,2.0,90,0.00,,,0.00,meteohub,2013-03-08 12:37:00,
2013-03-08 06:42:00,25.5,23.0,30.48,ENE,68,0.0,2.0,90,0.00,,,0.00,meteohub,2013-03-08 12:42:00,
2013-03-08 06:47:00,25.9,23.4,30.48,ENE,68,0.0,2.0,90,0.00,,,0.00,meteohub,2013-03-08 12:47:00,
2013-03-08 06:52:00,26.1,23.2,30.48,ENE,68,0.0,2.0,89,0.00,,,0.00,meteohub,2013-03-08 12:52:00,
2013-03-08 06:57:00,26.4,23.5,30.48,ENE,68,1.0,2.0,89,0.00,,,0.00,meteohub,2013-03-08 12:57:00,
2013-03-08 07:02:00,26.8,23.7,30.48,ENE,68,0.0,2.0,88,0.00,,,0.00,meteohub,2013-03-08 13:02:00,
2013-03-08 07:07:00,27.1,24.1,30.48,ENE,68,1.0,2.0,88,0.00,,,0.00,meteohub,2013-03-08 13:07:00,
2013-03-08 07:12:00,27.5,24.1,30.49,ENE,71,0.0,2.0,87,0.00,,,0.00,meteohub,2013-03-08 13:12:00,
2013-03-08 07:18:00,27.9,24.3,30.49,ENE,71,0.0,2.0,86,0.00,,,0.00,meteohub,2013-03-08 13:18:00,
2013-03-08 07:23:00,28.2,24.3,30.49,East,80,0.0,2.0,85,0.00,,,0.00,meteohub,2013-03-08 13:23:00,
2013-03-08 07:28:00,28.8,24.6,30.49,ENE,69,1.0,5.0,84,0.00,,,0.00,meteohub,2013-03-08 13:28:00,
2013-03-08 07:33:00,28.9,24.8,30.50,ENE,66,2.0,5.0,84,0.00,,,0.00,meteohub,2013-03-08 13:33:00,
2013-03-08 07:38:00,29.5,24.6,30.50,ENE,66,2.0,5.0,82,0.00,,,0.00,meteohub,2013-03-08 13:38:00,
2013-03-08 07:43:00,29.8,25.3,30.50,East,84,2.0,5.0,83,0.00,,,0.00,meteohub,2013-03-08 13:43:00,
2013-03-08 07:48:00,30.6,26.1,30.50,East,95,0.0,5.0,83,0.00,,,0.00,meteohub,2013-03-08 13:48:00,
2013-03-08 07:53:00,31.3,26.1,30.50,ENE,76,0.0,5.0,81,0.00,,,0.00,meteohub,2013-03-08 13:53:00,
2013-03-08 07:58:00,31.5,26.1,30.50,East,94,1.0,4.0,80,0.00,,,0.00,meteohub,2013-03-08 13:58:00,
2013-03-08 08:03:00,31.8,26.1,30.50,ESE,102,6.0,6.0,79,0.00,,,0.00,meteohub,2013-03-08 14:03:00,
2013-03-08 08:08:00,31.8,26.1,30.50,ENE,78,7.0,7.0,79,0.00,,,0.00,meteohub,2013-03-08 14:08:00,
2013-03-08 08:13:00,31.8,26.1,30.50,ESE,112,2.0,7.0,79,0.00,,,0.00,meteohub,2013-03-08 14:13:00,
2013-03-08 08:18:00,32.0,25.9,30.50,NNE,13,1.0,8.0,78,0.00,,,0.00,meteohub,2013-03-08 14:18:00,
2013-03-08 08:24:00,32.4,26.6,30.50,East,95,4.0,8.0,79,0.00,,,0.00,meteohub,2013-03-08 14:24:00,
2013-03-08 08:29:00,32.5,26.8,30.50,NE,46,4.0,8.0,79,0.00,,,0.00,meteohub,2013-03-08 14:29:00,
2013-03-08 08:34:00,33.1,26.6,30.50,NE,51,4.0,8.0,77,0.00,,,0.00,meteohub,2013-03-08 14:34:00,
2013-03-08 08:39:00,33.1,26.6,30.50,ENE,63,2.0,7.0,77,0.00,,,0.00,meteohub,2013-03-08 14:39:00,
2013-03-08 08:44:00,33.4,27.0,30.50,East,98,1.0,8.0,77,0.00,,,0.00,meteohub,2013-03-08 14:44:00,
2013-03-08 08:49:00,34.2,27.3,30.50,ESE,119,0.0,8.0,76,0.00,,,0.00,meteohub,2013-03-08 14:49:00,
2013-03-08 08:54:00,34.9,27.7,30.50,East,86,0.0,7.0,75,0.00,,,0.00,meteohub,2013-03-08 14:54:00,
2013-03-08 08:59:00,35.1,27.3,30.50,ENE,60,5.0,6.0,73,0.00,,,0.00,meteohub,2013-03-08 14:59:00,
2013-03-08 09:04:00,35.1,27.3,30.50,ESE,121,6.0,6.0,73,0.00,,,0.00,meteohub,2013-03-08 15:04:00,
2013-03-08 09:09:00,35.2,27.5,30.50,East,92,4.0,7.0,73,0.00,,,0.00,meteohub,2013-03-08 15:09:00,
2013-03-08 09:15:00,35.4,27.0,30.50,SE,142,1.0,8.0,71,0.00,,,0.00,meteohub,2013-03-08 15:15:00,
2013-03-08 09:20:00,36.0,28.2,30.51,SE,124,5.0,8.0,73,0.00,,,0.00,meteohub,2013-03-08 15:20:00,
2013-03-08 09:25:00,36.1,28.0,30.50,ENE,73,5.0,7.0,72,0.00,,,0.00,meteohub,2013-03-08 15:25:00,
2013-03-08 09:30:00,36.3,28.6,30.50,ESE,117,1.0,6.0,73,0.00,,,0.00,meteohub,2013-03-08 15:30:00,
2013-03-08 09:35:00,36.7,28.6,30.50,East,100,6.0,7.0,72,0.00,,,0.00,meteohub,2013-03-08 15:35:00,
2013-03-08 09:40:00,36.1,27.7,30.50,ESE,105,0.0,10.0,71,0.00,,,0.00,meteohub,2013-03-08 15:40:00,
2013-03-08 09:45:00,36.3,28.2,30.50,ESE,111,5.0,10.0,72,0.00,,,0.00,meteohub,2013-03-08 15:45:00,
2013-03-08 09:50:00,36.3,27.5,30.50,ESE,105,3.0,10.0,70,0.00,,,0.00,meteohub,2013-03-08 15:50:00,
2013-03-08 09:55:00,36.3,27.5,30.50,ENE,76,5.0,9.0,70,0.00,,,0.00,meteohub,2013-03-08 15:55:00,
2013-03-08 10:00:00,36.3,27.9,30.50,ESE,119,6.0,9.0,71,0.00,,,0.00,meteohub,2013-03-08 16:00:00,
2013-03-08 10:06:00,36.7,28.2,30.50,ESE,107,0.0,9.0,71,0.00,,,0.00,meteohub,2013-03-08 16:06:00,
2013-03-08 10:11:00,37.2,28.4,30.50,ESE,109,6.0,9.0,70,0.00,,,0.00,meteohub,2013-03-08 16:11:00,
2013-03-08 10:16:00,37.6,27.7,30.50,SE,146,6.0,9.0,67,0.00,,,0.00,meteohub,2013-03-08 16:16:00,
2013-03-08 10:21:00,37.9,28.0,30.50,ENE,65,0.0,8.0,67,0.00,,,0.00,meteohub,2013-03-08 16:21:00,
2013-03-08 10:26:00,37.9,28.0,30.50,SE,124,5.0,8.0,67,0.00,,,0.00,meteohub,2013-03-08 16:26:00,
2013-03-08 10:31:00,37.9,26.8,30.50,East,98,4.0,9.0,64,0.00,,,0.00,meteohub,2013-03-08 16:31:00,
2013-03-08 10:36:00,38.1,27.0,30.50,SE,126,1.0,10.0,64,0.00,,,0.00,meteohub,2013-03-08 16:36:00,
2013-03-08 10:41:00,38.5,28.0,30.50,SE,126,6.0,10.0,66,0.00,,,0.00,meteohub,2013-03-08 16:41:00,
2013-03-08 10:46:00,38.8,27.7,30.50,SE,138,5.0,10.0,64,0.00,,,0.00,meteohub,2013-03-08 16:46:00,
2013-03-08 10:52:00,38.8,27.0,30.50,ESE,121,4.0,11.0,62,0.00,,,0.00,meteohub,2013-03-08 16:52:00,
2013-03-08 10:57:00,39.0,27.5,30.50,SE,144,7.0,11.0,63,0.00,,,0.00,meteohub,2013-03-08 16:57:00,
2013-03-08 11:02:00,39.4,27.9,30.50,ESE,123,2.0,11.0,63,0.00,,,0.00,meteohub,2013-03-08 17:02:00,
2013-03-08 11:07:00,39.6,27.7,30.50,East,84,7.0,10.0,62,0.00,,,0.00,meteohub,2013-03-08 17:07:00,
2013-03-08 11:12:00,39.9,28.0,30.50,South,178,2.0,10.0,62,0.00,,,0.00,meteohub,2013-03-08 17:12:00,
2013-03-08 11:17:00,39.7,27.3,30.50,SE,136,4.0,9.0,61,0.00,,,0.00,meteohub,2013-03-08 17:17:00,
2013-03-08 11:22:00,39.9,28.0,30.50,SE,126,5.0,9.0,62,0.00,,,0.00,meteohub,2013-03-08 17:22:00,
2013-03-08 11:27:00,39.9,27.5,30.50,SE,130,0.0,9.0,61,0.00,,,0.00,meteohub,2013-03-08 17:27:00,
2013-03-08 11:32:00,40.1,27.7,30.49,ESE,122,7.0,10.0,61,0.00,,,0.00,meteohub,2013-03-08 17:32:00,
2013-03-08 11:37:00,39.9,28.0,30.49,SE,126,1.0,10.0,62,0.00,,,0.00,meteohub,2013-03-08 17:37:00,
2013-03-08 11:42:00,40.6,28.6,30.49,SE,136,1.0,10.0,62,0.00,,,0.00,meteohub,2013-03-08 17:42:00,
2013-03-08 11:47:00,40.8,28.0,30.48,SSE,157,5.0,9.0,60,0.00,,,0.00,meteohub,2013-03-08 17:47:00,
2013-03-08 11:52:00,40.8,28.0,30.48,SSE,154,4.0,9.0,60,0.00,,,0.00,meteohub,2013-03-08 17:52:00,
2013-03-08 11:58:00,40.8,28.8,30.48,East,92,2.0,9.0,62,0.00,,,0.00,meteohub,2013-03-08 17:58:00,
2013-03-08 12:03:00,41.0,28.2,30.48,SSE,161,5.0,9.0,60,0.00,,,0.00,meteohub,2013-03-08 18:03:00,
2013-03-08 12:08:00,41.5,29.1,30.48,SE,128,3.0,11.0,61,0.00,,,0.00,meteohub,2013-03-08 18:08:00,
2013-03-08 12:13:00,41.7,28.9,30.47,ESE,117,4.0,11.0,60,0.00,,,0.00,meteohub,2013-03-08 18:13:00,
2013-03-08 12:18:00,41.4,28.9,30.47,ESE,116,2.0,10.0,61,0.00,,,0.00,meteohub,2013-03-08 18:18:00,
2013-03-08 12:23:00,41.4,28.9,30.46,ESE,117,7.0,10.0,61,0.00,,,0.00,meteohub,2013-03-08 18:23:00,
2013-03-08 12:28:00,41.4,28.9,30.46,SSE,165,2.0,10.0,61,0.00,,,0.00,meteohub,2013-03-08 18:28:00,
2013-03-08 12:33:00,41.4,28.9,30.45,SE,146,5.0,9.0,61,0.00,,,0.00,meteohub,2013-03-08 18:33:00,
2013-03-08 12:38:00,41.7,29.7,30.44,ESE,121,1.0,9.0,62,0.00,,,0.00,meteohub,2013-03-08 18:38:00,
2013-03-08 12:43:00,41.5,28.2,30.44,ENE,78,5.0,9.0,59,0.00,,,0.00,meteohub,2013-03-08 18:43:00,
2013-03-08 12:49:00,41.5,28.8,30.44,East,86,5.0,9.0,60,0.00,,,0.00,meteohub,2013-03-08 18:49:00,
2013-03-08 12:54:00,42.1,30.0,30.44,SSE,150,1.0,9.0,62,0.00,,,0.00,meteohub,2013-03-08 18:54:00,
2013-03-08 12:59:00,42.8,29.1,30.43,ENE,70,7.0,9.0,58,0.00,,,0.00,meteohub,2013-03-08 18:59:00,
2013-03-08 13:04:00,42.8,29.1,30.43,East,85,6.0,9.0,58,0.00,,,0.00,meteohub,2013-03-08 19:04:00,
2013-03-08 13:09:00,43.2,29.8,30.43,ESE,117,5.0,9.0,59,0.00,,,0.00,meteohub,2013-03-08 19:09:00,
2013-03-08 13:14:00,43.3,29.5,30.43,SE,136,2.0,9.0,58,0.00,,,0.00,meteohub,2013-03-08 19:14:00,
2013-03-08 13:19:00,43.2,29.8,30.43,SE,142,7.0,9.0,59,0.00,,,0.00,meteohub,2013-03-08 19:19:00,
2013-03-08 13:24:00,43.3,30.0,30.42,SE,132,3.0,9.0,59,0.00,,,0.00,meteohub,2013-03-08 19:24:00,
2013-03-08 13:29:00,43.2,29.8,30.42,SSE,163,3.0,10.0,59,0.00,,,0.00,meteohub,2013-03-08 19:29:00,
2013-03-08 13:34:00,43.2,29.3,30.42,East,92,5.0,10.0,58,0.00,,,0.00,meteohub,2013-03-08 19:34:00,
2013-03-08 13:39:00,43.3,30.4,30.42,SSE,161,5.0,10.0,60,0.00,,,0.00,meteohub,2013-03-08 19:39:00,
2013-03-08 13:45:00,43.3,29.1,30.42,SSE,159,8.0,10.0,57,0.00,,,0.00,meteohub,2013-03-08 19:45:00,
2013-03-08 13:50:00,43.2,29.3,30.41,SSE,159,5.0,10.0,58,0.00,,,0.00,meteohub,2013-03-08 19:50:00,
2013-03-08 13:55:00,43.3,29.5,30.41,North,-999,-999.0,10.0,58,0.00,,,0.00,meteohub,2013-03-08 19:55:00,
2013-03-08 14:00:00,43.2,28.9,30.41,ESE,114,9.0,9.0,57,0.00,,,0.00,meteohub,2013-03-08 20:00:00,
2013-03-08 14:05:00,43.0,29.3,30.40,ENE,71,0.0,10.0,58,0.00,,,0.00,meteohub,2013-03-08 20:05:00,
2013-03-08 14:10:00,43.3,30.0,30.40,SE,136,0.0,10.0,59,0.00,,,0.00,meteohub,2013-03-08 20:10:00,
2013-03-08 14:15:00,43.5,28.9,30.40,South,170,1.0,10.0,56,0.00,,,0.00,meteohub,2013-03-08 20:15:00,
2013-03-08 14:20:00,43.3,29.1,30.40,ESE,109,4.0,10.0,57,0.00,,,0.00,meteohub,2013-03-08 20:20:00,
2013-03-08 14:25:00,43.3,29.5,30.40,SE,126,4.0,10.0,58,0.00,,,0.00,meteohub,2013-03-08 20:25:00,
2013-03-08 14:31:00,43.5,29.7,30.40,SSE,150,9.0,10.0,58,0.00,,,0.00,meteohub,2013-03-08 20:31:00,
2013-03-08 14:36:00,43.3,30.0,30.40,SSE,152,5.0,9.0,59,0.00,,,0.00,meteohub,2013-03-08 20:36:00,
2013-03-08 14:41:00,43.3,29.5,30.39,East,100,2.0,9.0,58,0.00,,,0.00,meteohub,2013-03-08 20:41:00,
2013-03-08 14:46:00,44.1,29.3,30.39,SE,144,0.0,9.0,56,0.00,,,0.00,meteohub,2013-03-08 20:46:00,
2013-03-08 14:51:00,44.2,29.1,30.39,SSE,163,2.0,9.0,55,0.00,,,0.00,meteohub,2013-03-08 20:51:00,
2013-03-08 14:56:00,44.4,29.3,30.39,East,92,2.0,9.0,55,0.00,,,0.00,meteohub,2013-03-08 20:56:00,
2013-03-08 15:01:00,44.2,29.1,30.40,SE,145,7.0,10.0,55,0.00,,,0.00,meteohub,2013-03-08 21:01:00,
2013-03-08 15:06:00,43.7,29.1,30.39,East,89,7.0,11.0,56,0.00,,,0.00,meteohub,2013-03-08 21:06:00,
2013-03-08 15:12:00,43.3,29.1,30.38,East,86,5.0,11.0,57,0.00,,,0.00,meteohub,2013-03-08 21:12:00,
2013-03-08 15:17:00,43.2,29.8,30.38,SE,125,4.0,11.0,59,0.00,,,0.00,meteohub,2013-03-08 21:17:00,
2013-03-08 15:22:00,43.3,30.4,30.38,East,90,4.0,10.0,60,0.00,,,0.00,meteohub,2013-03-08 21:22:00,
2013-03-08 15:27:00,43.0,30.0,30.38,ESE,107,2.0,10.0,60,0.00,,,0.00,meteohub,2013-03-08 21:27:00,
2013-03-08 15:32:00,43.0,30.0,30.38,ENE,76,2.0,11.0,60,0.00,,,0.00,meteohub,2013-03-08 21:32:00,
2013-03-08 15:37:00,43.0,30.4,30.38,ENE,72,0.0,11.0,61,0.00,,,0.00,meteohub,2013-03-08 21:37:00,
2013-03-08 15:42:00,43.2,30.2,30.38,SE,126,5.0,10.0,60,0.00,,,0.00,meteohub,2013-03-08 21:42:00,
2013-03-08 15:47:00,43.2,31.1,30.38,ESE,117,8.0,9.0,62,0.00,,,0.00,meteohub,2013-03-08 21:47:00,
2013-03-08 15:52:00,43.2,30.2,30.38,ESE,104,6.0,9.0,60,0.00,,,0.00,meteohub,2013-03-08 21:52:00,
2013-03-08 15:57:00,43.0,30.4,30.37,SE,126,1.0,11.0,61,0.00,,,0.00,meteohub,2013-03-08 21:57:00,
2013-03-08 16:03:00,43.0,30.4,30.37,East,94,0.0,11.0,61,0.00,,,0.00,meteohub,2013-03-08 22:03:00,
2013-03-08 16:08:00,42.8,30.2,30.38,ENE,75,5.0,11.0,61,0.00,,,0.00,meteohub,2013-03-08 22:08:00,
2013-03-08 16:13:00,43.0,30.9,30.38,East,87,5.0,8.0,62,0.00,,,0.00,meteohub,2013-03-08 22:13:00,
2013-03-08 16:18:00,43.2,31.1,30.38,ESE,119,2.0,8.0,62,0.00,,,0.00,meteohub,2013-03-08 22:18:00,
2013-03-08 16:23:00,43.2,30.6,30.38,ENE,72,0.0,7.0,61,0.00,,,0.00,meteohub,2013-03-08 22:23:00,
2013-03-08 16:28:00,43.2,30.6,30.37,ENE,72,5.0,9.0,61,0.00,,,0.00,meteohub,2013-03-08 22:28:00,
2013-03-08 16:33:00,42.8,30.7,30.37,ENE,77,6.0,9.0,62,0.00,,,0.00,meteohub,2013-03-08 22:33:00,
2013-03-08 16:38:00,42.6,30.6,30.38,SE,133,4.0,10.0,62,0.00,,,0.00,meteohub,2013-03-08 22:38:00,
2013-03-08 16:43:00,43.0,30.9,30.38,South,175,3.0,10.0,62,0.00,,,0.00,meteohub,2013-03-08 22:43:00,
2013-03-08 16:49:00,43.0,30.9,30.38,ENE,57,5.0,10.0,62,0.00,,,0.00,meteohub,2013-03-08 22:49:00,
2013-03-08 16:54:00,42.8,30.7,30.38,ENE,75,5.0,8.0,62,0.00,,,0.00,meteohub,2013-03-08 22:54:00,
2013-03-08 16:59:00,42.4,30.7,30.38,East,87,4.0,7.0,63,0.00,,,0.00,meteohub,2013-03-08 22:59:00,
2013-03-08 17:04:00,42.1,30.4,30.38,ESE,119,6.0,9.0,63,0.00,,,0.00,meteohub,2013-03-08 23:04:00,
2013-03-08 17:09:00,42.1,30.7,30.38,SE,125,4.0,9.0,64,0.00,,,0.00,meteohub,2013-03-08 23:09:00,
2013-03-08 17:14:00,41.7,30.4,30.38,East,101,0.0,9.0,64,0.00,,,0.00,meteohub,2013-03-08 23:14:00,
2013-03-08 17:19:00,41.4,30.0,30.38,ESE,115,0.0,8.0,64,0.00,,,0.00,meteohub,2013-03-08 23:19:00,
2013-03-08 17:24:00,41.2,30.4,30.38,SE,127,1.0,8.0,65,0.00,,,0.00,meteohub,2013-03-08 23:24:00,
2013-03-08 17:29:00,40.8,30.4,30.38,SE,132,0.0,8.0,66,0.00,,,0.00,meteohub,2013-03-08 23:29:00,
2013-03-08 17:34:00,40.6,30.6,30.38,ESE,102,2.0,8.0,67,0.00,,,0.00,meteohub,2013-03-08 23:34:00,
2013-03-08 17:39:00,40.5,30.4,30.38,ESE,107,0.0,6.0,67,0.00,,,0.00,meteohub,2013-03-08 23:39:00,
2013-03-08 17:45:00,40.1,30.4,30.38,East,85,2.0,6.0,68,0.00,,,0.00,meteohub,2013-03-08 23:45:00,
2013-03-08 17:50:00,39.9,30.6,30.38,East,80,1.0,6.0,69,0.00,,,0.00,meteohub,2013-03-08 23:50:00,
2013-03-08 17:55:00,39.6,30.6,30.38,ENE,77,0.0,6.0,70,0.00,,,0.00,meteohub,2013-03-08 23:55:00,
2013-03-08 18:00:00,39.4,30.4,30.39,ESE,103,1.0,4.0,70,0.00,,,0.00,meteohub,2013-03-09 00:00:00,
2013-03-08 18:05:00,39.2,30.2,30.38,ENE,67,3.0,4.0,70,0.00,,,0.00,meteohub,2013-03-09 00:05:00,
2013-03-08 18:10:00,39.0,30.4,30.38,ENE,74,0.0,6.0,71,0.00,,,0.00,meteohub,2013-03-09 00:10:00,
2013-03-08 18:15:00,38.8,30.6,30.38,ENE,58,5.0,6.0,72,0.00,,,0.00,meteohub,2013-03-09 00:15:00,
2013-03-08 18:20:00,38.5,30.6,30.38,ENE,71,6.0,6.0,73,0.00,,,0.00,meteohub,2013-03-09 00:20:00,
2013-03-08 18:25:00,38.1,30.9,30.38,NE,49,1.0,6.0,75,0.00,,,0.00,meteohub,2013-03-09 00:25:00,
2013-03-08 18:31:00,37.9,30.7,30.39,ENE,61,0.0,6.0,75,0.00,,,0.00,meteohub,2013-03-09 00:31:00,
2013-03-08 18:36:00,37.8,30.9,30.39,East,86,2.0,6.0,76,0.00,,,0.00,meteohub,2013-03-09 00:36:00,
2013-03-08 18:41:00,37.4,30.6,30.39,East,82,0.0,7.0,76,0.00,,,0.00,meteohub,2013-03-09 00:41:00,
2013-03-08 18:46:00,37.2,30.7,30.39,ENE,72,1.0,7.0,77,0.00,,,0.00,meteohub,2013-03-09 00:46:00,
2013-03-08 18:51:00,36.9,30.4,30.38,NE,52,1.0,7.0,77,0.00,,,0.00,meteohub,2013-03-09 00:51:00,
2013-03-08 18:56:00,36.7,30.6,30.38,ENE,78,2.0,6.0,78,0.00,,,0.00,meteohub,2013-03-09 00:56:00,
2013-03-08 19:01:00,36.5,30.4,30.38,ENE,78,0.0,8.0,78,0.00,,,0.00,meteohub,2013-03-09 01:01:00,
2013-03-08 19:06:00,36.3,30.4,30.38,East,101,1.0,8.0,79,0.00,,,0.00,meteohub,2013-03-09 01:06:00,
2013-03-08 19:11:00,36.1,30.0,30.39,ENE,74,0.0,8.0,78,0.00,,,0.00,meteohub,2013-03-09 01:11:00,
2013-03-08 19:17:00,36.1,30.0,30.39,East,84,1.0,6.0,78,0.00,,,0.00,meteohub,2013-03-09 01:17:00,
2013-03-08 19:22:00,36.0,30.0,30.38,ENE,75,4.0,5.0,79,0.00,,,0.00,meteohub,2013-03-09 01:22:00,
2013-03-08 19:27:00,36.0,30.0,30.38,East,88,1.0,5.0,79,0.00,,,0.00,meteohub,2013-03-09 01:27:00,
2013-03-08 19:32:00,36.0,30.0,30.38,ENE,67,2.0,5.0,79,0.00,,,0.00,meteohub,2013-03-09 01:32:00,
2013-03-08 19:37:00,35.8,29.8,30.38,East,92,4.0,5.0,79,0.00,,,0.00,meteohub,2013-03-09 01:37:00,
2013-03-08 19:42:00,35.8,29.8,30.38,ENE,74,2.0,6.0,79,0.00,,,0.00,meteohub,2013-03-09 01:42:00,
2013-03-08 19:47:00,35.8,29.8,30.38,ENE,71,1.0,6.0,79,0.00,,,0.00,meteohub,2013-03-09 01:47:00,
2013-03-08 19:52:00,35.8,29.8,30.38,ESE,108,1.0,6.0,79,0.00,,,0.00,meteohub,2013-03-09 01:52:00,
2013-03-08 19:57:00,35.8,29.8,30.38,East,82,1.0,6.0,79,0.00,,,0.00,meteohub,2013-03-09 01:57:00,
2013-03-08 20:02:00,35.8,29.7,30.38,ENE,76,0.0,6.0,78,0.00,,,0.00,meteohub,2013-03-09 02:02:00,
2013-03-08 20:07:00,35.6,29.7,30.38,ENE,71,0.0,6.0,79,0.00,,,0.00,meteohub,2013-03-09 02:07:00,
2013-03-08 20:12:00,35.6,29.5,30.38,East,87,0.0,6.0,78,0.00,,,0.00,meteohub,2013-03-09 02:12:00,
2013-03-08 20:17:00,35.4,29.3,30.38,ENE,76,0.0,6.0,78,0.00,,,0.00,meteohub,2013-03-09 02:17:00,
2013-03-08 20:22:00,35.4,29.5,30.38,ENE,76,2.0,5.0,79,0.00,,,0.00,meteohub,2013-03-09 02:22:00,
2013-03-08 20:27:00,35.4,29.5,30.38,ENE,76,1.0,5.0,79,0.00,,,0.00,meteohub,2013-03-09 02:27:00,
2013-03-08 20:32:00,35.2,29.3,30.38,ENE,71,1.0,5.0,79,0.00,,,0.00,meteohub,2013-03-09 02:32:00,
2013-03-08 20:37:00,35.2,29.3,30.38,NE,56,2.0,5.0,79,0.00,,,0.00,meteohub,2013-03-09 02:37:00,
2013-03-08 20:42:00,35.2,29.3,30.37,ENE,71,3.0,6.0,79,0.00,,,0.00,meteohub,2013-03-09 02:42:00,
2013-03-08 20:47:00,35.1,29.5,30.37,ENE,73,3.0,6.0,80,0.00,,,0.00,meteohub,2013-03-09 02:47:00,
2013-03-08 20:52:00,35.1,29.5,30.37,ENE,66,1.0,6.0,80,0.00,,,0.00,meteohub,2013-03-09 02:52:00,
2013-03-08 20:57:00,35.1,29.5,30.37,ENE,74,2.0,6.0,80,0.00,,,0.00,meteohub,2013-03-09 02:57:00,
2013-03-08 21:02:00,35.1,29.5,30.37,ENE,77,6.0,9.0,80,0.00,,,0.00,meteohub,2013-03-09 03:02:00,
2013-03-08 21:07:00,35.1,29.5,30.37,ENE,76,0.0,9.0,80,0.00,,,0.00,meteohub,2013-03-09 03:07:00,
2013-03-08 21:13:00,35.1,29.5,30.36,NE,47,4.0,9.0,80,0.00,,,0.00,meteohub,2013-03-09 03:13:00,
2013-03-08 21:18:00,35.1,29.5,30.36,ENE,78,0.0,7.0,80,0.00,,,0.00,meteohub,2013-03-09 03:18:00,
2013-03-08 21:23:00,35.1,29.5,30.36,East,80,1.0,7.0,80,0.00,,,0.00,meteohub,2013-03-09 03:23:00,
2013-03-08 21:28:00,35.1,29.5,30.36,East,81,1.0,7.0,80,0.00,,,0.00,meteohub,2013-03-09 03:28:00,
2013-03-08 21:33:00,35.1,29.5,30.36,East,88,0.0,7.0,80,0.00,,,0.00,meteohub,2013-03-09 03:33:00,
2013-03-08 21:38:00,35.1,29.8,30.36,ENE,60,2.0,6.0,81,0.00,,,0.00,meteohub,2013-03-09 03:38:00,
2013-03-08 21:43:00,34.9,29.7,30.36,ENE,69,1.0,6.0,81,0.00,,,0.00,meteohub,2013-03-09 03:43:00,
2013-03-08 21:48:00,34.9,29.7,30.36,East,82,1.0,5.0,81,0.00,,,0.00,meteohub,2013-03-09 03:48:00,
2013-03-08 21:53:00,34.9,29.7,30.36,ENE,69,1.0,5.0,81,0.00,,,0.00,meteohub,2013-03-09 03:53:00,
2013-03-08 21:58:00,34.9,29.7,30.36,ENE,71,0.0,5.0,81,0.00,,,0.00,meteohub,2013-03-09 03:58:00,
2013-03-08 22:03:00,34.7,29.5,30.36,ENE,75,4.0,6.0,81,0.00,,,0.00,meteohub,2013-03-09 04:03:00,
2013-03-08 22:08:00,34.7,29.8,30.35,ESE,104,1.0,6.0,82,0.00,,,0.00,meteohub,2013-03-09 04:08:00,
2013-03-08 22:13:00,34.7,29.8,30.35,ENE,71,2.0,6.0,82,0.00,,,0.00,meteohub,2013-03-09 04:13:00,
2013-03-08 22:18:00,34.5,29.7,30.35,ESE,102,3.0,7.0,82,0.00,,,0.00,meteohub,2013-03-09 04:18:00,
2013-03-08 22:23:00,34.5,29.7,30.35,ENE,76,2.0,7.0,82,0.00,,,0.00,meteohub,2013-03-09 04:23:00,
2013-03-08 22:29:00,34.5,29.3,30.34,NE,43,1.0,6.0,81,0.00,,,0.00,meteohub,2013-03-09 04:29:00,
2013-03-08 22:34:00,34.5,29.3,30.34,ESE,102,0.0,9.0,81,0.00,,,0.00,meteohub,2013-03-09 04:34:00,
2013-03-08 22:39:00,34.7,29.5,30.34,East,85,0.0,9.0,81,0.00,,,0.00,meteohub,2013-03-09 04:39:00,
2013-03-08 22:44:00,34.9,29.7,30.33,ENE,73,6.0,9.0,81,0.00,,,0.00,meteohub,2013-03-09 04:44:00,
2013-03-08 22:49:00,34.9,29.7,30.33,ESE,112,0.0,9.0,81,0.00,,,0.00,meteohub,2013-03-09 04:49:00,
2013-03-08 22:54:00,34.9,29.7,30.32,SE,132,0.0,9.0,81,0.00,,,0.00,meteohub,2013-03-09 04:54:00,
2013-03-08 22:59:00,34.7,29.5,30.33,ESE,116,1.0,9.0,81,0.00,,,0.00,meteohub,2013-03-09 04:59:00,
2013-03-08 23:00:00,34.9,29.7,30.32,SE,125,2.0,9.0,81,0.00,,,0.00,meteohub,2013-03-09 05:00:00,
2013-03-08 23:01:00,34.9,29.7,30.33,ESE,123,1.0,9.0,81,0.00,,,0.00,meteohub,2013-03-09 05:01:00,
2013-03-08 23:02:00,34.7,29.5,30.33,East,98,6.0,9.0,81,0.00,,,0.00,meteohub,2013-03-09 05:02:00,
2013-03-08 23:05:00,34.9,29.3,30.33,ESE,116,6.0,7.0,80,0.00,,,0.00,meteohub,2013-03-09 05:05:00,
2013-03-08 23:10:00,34.9,29.3,30.32,East,94,5.0,10.0,80,0.00,,,0.00,meteohub,2013-03-09 05:10:00,
2013-03-08 23:15:00,35.1,29.1,30.32,ESE,111,3.0,10.0,79,0.00,,,0.00,meteohub,2013-03-09 05:15:00,
2013-03-08 23:20:00,35.1,29.1,30.33,ESE,114,2.0,10.0,79,0.00,,,0.00,meteohub,2013-03-09 05:20:00,
2013-03-08 23:25:00,35.1,29.1,30.33,SE,127,5.0,9.0,79,0.00,,,0.00,meteohub,2013-03-09 05:25:00,
2013-03-08 23:30:00,35.2,29.3,30.33,SE,130,1.0,9.0,79,0.00,,,0.00,meteohub,2013-03-09 05:30:00,
2013-03-08 23:36:00,35.1,29.1,30.33,SE,143,0.0,9.0,79,0.00,,,0.00,meteohub,2013-03-09 05:36:00,
2013-03-08 23:41:00,34.9,29.1,30.33,SE,136,4.0,9.0,79,0.00,,,0.00,meteohub,2013-03-09 05:41:00,
2013-03-08 23:46:00,34.9,29.1,30.33,SE,131,1.0,6.0,79,0.00,,,0.00,meteohub,2013-03-09 05:46:00,
2013-03-08 23:51:00,34.5,28.9,30.33,ESE,113,3.0,4.0,80,0.00,,,0.00,meteohub,2013-03-09 05:51:00,
2013-03-08 23:56:00,34.5,28.9,30.32,ENE,76,0.0,5.0,80,0.00,,,0.00,meteohub,2013-03-09 05:56:00,